NOAA 5 [-]

Last updated on Fri Dec 29 2023 00:02:19 GMT+0000 (Greenwich Mean Time)

1 09057U 76077A 23361.88302889 -.00000041 00000+0 35729-4 0 9994 2 09057 102.1842 330.7760 0009427 191.6818 224.1866 12.37793337143050
UTC large
Height (km)
Speed (km/s)
/
Latitude / Longitude
Inclination (degrees)
Orbital Period (minutes)
Azimuth
Elevation
Range (km)
Doppler Factor

Next 0 passes for location: London (51.5072 / 0.1276)

Sorry there are no passes over London.